Погода в Олекминске

Хотите узнать прогноз погоды в Олекминске? Тогда Вам сюда: Погода в Олекминске

Поиск расширенной информации на нашем сайте:

Полезная информация:

Новости сайта



02.01.2020
Опубликован Долгосрочный прогноз погоды по городам России и ближнего зарубежья на январь 2020 года.
Карты: Прогноз на январь и февраль 2020 года, Сравнение прогнозируемой аномалии приземной температуры воздуха на январь 2020 года по разным моделям.




Погода в Олекминске - сегодня

Время (UTC), дата Ветер
(°,м/с) 
Видим.   Явления Облачность Т
(°С)
Тd
(°С)
f(%) Тe
(°С)
Pmin
(гПа)
dP
(гПа)
Po
(мм)
O2
(г/м3)
Тmin Tmax R s Состояние
почвы
21 29.11.20 250 (З) 20000 м  слаб. снег  10/0 средняя, верхняя 
[Ac trans|Cs]
-15.4 -18.1 80 -20  1031.1  -1  750  322           
00 30.11.20 250 (З) 10 км  слаб. снег  10/0 средняя, верхняя 
[Ac trans|Cs]
-15.2 -17.2 85 -20  1030.5  -0.6  750  321  -17.2    0.2  28  равномерный
сухой снег
100% 
03 30.11.20 250 (З) 4{10}  4000 м  слаб. снег  10/0 средняя 
[As op]
-15.3 -17.3 85 -20  1029.6  -0.9  749  321           
06 30.11.20 250 (З) 4000 м  слаб. снег  10/0 средняя 
[As op]
-14.5 -16.5 85 -20  1029.1  -0.5  749  320           
09 30.11.20 250 (З) 4000 м  слаб. снег  10/0 средняя 
[As op]
-14.2 -16.2 85 -19  1029.1  749  320           
12 30.11.20 260 (З) 10 км  слаб. снег  10/0 средняя, верхняя 
[Ac trans|Cs]
-15 -18.4 75 -20  1028.9  -0.2  749  321    -14  0.4     
15 30.11.20 нст () 4000 м  слаб. снег  10/0 средняя, верхняя 
[Ac trans|Cs]
-19.2 -21.1 85 -19  1028.2  -1.1  748  326           
18 30.11.20 240 (ЮЗ) 4000 м  слаб. снег  10/0 средняя, верхняя 
[Ac trans|Cs]
-16.6 -17.9 90 -19  1026.9  -1  747  322           
21 30.11.20 250 (З) 4000 м  слаб. снег  10/0 средняя 
[As op]
-14.7 -16.5 86 -19  1025.3  -1.4  746  319           
00 01.12.20 250 (З) 4000 м  слаб. снег  10/0 средняя 
[As op]
-14.6 -16.6 85 -19  1024.8  -0.5  746  319  -19.3    28  равномерный
сухой снег
100% 
03 01.12.20 250 (З) 4000 м  слаб. снег  10/0 средняя, верхняя 
[Ac trans|Cs]
-14 -16 85 -19  1023.8  -0.7  745  318           
06 01.12.20 240 (ЮЗ) 10 км  слаб. снег  10/3 1000 м средняя, верхняя 
[Sc|Ac trans|Cs]
-13.8 -15.8 85 -18  1022.6  -1.1  744  317           
09 01.12.20 240 (ЮЗ) 4000 м  слаб. снег  10/4 600 м средняя 
[Sc|As op]
-13 -15 85 -17  1021.5  -1.1  743  316           
12 01.12.20 240 (ЮЗ) 4{10}  10 км  слаб. снег  10/0 средняя, верхняя 
[Ac trans|Cs]
-13.2 -15.2 85 -18  1020.3  -1.2  743  316    -12.8  0.5     
15 01.12.20 250 (З) 10 км  слаб. снег  10/0 средняя, верхняя 
[Ac trans|Cs]
-12.2 -13.5 90 -17  1018.9  -1.4  741  314           
18 01.12.20 250 (З) 10 км  слаб. снег  10/0 средняя, верхняя 
[Ac trans|Cs]
-11.5 -12.8 90 -16  1016.4  -2.1  740  312           
21 01.12.20 270 (З) 5{10}  10 км  слаб. снег  10/0 средняя 
[As op]
-11.2 -12.5 90 -16  1016.6  0.2  740  312           
00 02.12.20 260 (З) 5{10}  50000 м  слаб. снег  10/3 600 м средняя, верхняя 
[Sc|Ac trans|Cs]
-12 -14.7 80 -17  1017.9  1.2  741  314  -13.2    0.4  28  равномерный
сухой снег
100% 
03 02.12.20 270 (З) 5{11}  20000 м  слаб. снег  10/4 600 м средняя, верхняя 
[Sc|Ac trans|Cs]
-11.8 -14.6 80 -17  1018.6  0.7  741  314           
06 02.12.20 260 (З) 6{10}  10 км  слаб. снег  10/5 600 м средняя 
[Sc|As op]
-10.6 -12.6 85 -16  1016.8  1.7  740  311           
09 02.12.20 270 (З) 6{11}  10 км  слаб. снег  10/5 600 м средняя 
[Sc|As op]
-10.8 -11.4 95 -16  1015.4  -1.4  739  311           
12 02.12.20 260 (З) 4{10}  4000 м  слаб. снег  10/4 600 м средняя 
[Sc|As op]
-10.3 -11.6 90 -14  1013.7  -1.7  738  310    -9.9     
15 02.12.20 270 (З) 5{11}  4000 м  слаб. снег  10/4 600 м средняя 
[Sc|As op]
-9.8 -12.9 78 -14  1013.6  0.1  738  310           
18 02.12.20 280 (З) 7{12}  10 км  слаб. снег  10/6 600 м средняя, верхняя 
[Sc|Ac trans|Cs]
-9.7 -12.8 78 -16  1013.5  -0.1  738  309           
21 02.12.20 260 (З) 6{12}  20000 м  слаб. снег  10/5 600 м средняя 
[Sc|As op]
-9.4 -13.4 73 -15  1012.8  -0.7  737  309           
Время (UTC), дата Ветер
(°,м/с) 
Видим.   Явления Облачность Т
(°С)
Тd
(°С)
f(%) Тe
(°С)
Pmin
(гПа)
dP
(гПа)
Po
(мм)
O2
(г/м3)
Тmin Tmax R s Состояние
почвы

Для получения пояснительной информации подведите курсор к названию столбца.

ПОГОДА в Олекминске - архив

Всё, что Вы хотите узнать о погоде в Олекминске - удобно и подробно!

Выберите нужную дату (начиная с 1 января 2019* года) и нажмите кнопку "Найти".
Будут отображены архивные сводки погоды по пункту Олекминск, начиная с указанной даты.


Отображать данные в формате CSV (для использования в таблицах Excel)


Внимание! Наш архив погоды предназначен исключительно для личного некоммерческого использования в познавательных целях. Если Вам необходимы официальные справки о состоянии погоды (для производственных, юридических, коммерческих и т.п. целей), обращайтесь в органы Росгидромета.

*Примечание: данная дата относится к архиву по метеостанциям СССР (Россия, СНГ, Балтия).
Архив по метеостанциям Зарубежной Европы и Азии (кроме Китая) хранится 10 дней, по другим регионам земного шара (Китай, Африка, Америка, Австралия, Океания) - 1 день.

Олекминск - район местоположения метеостанции


Название, широта, долгота, высота метеостанции:
Олекминск 60.4°ш. 120.4°д. 226 м над ур. моря [Российская Федерация]

Дополнительная информация

В oтличие oт бoльшинства пoгoдных сайтoв мы публикуем пoдрoбную метеoинфoрмацию в детальнoм прoфессиoнальнoм фoрмате.

Характеристики температуры и влажнoсти вoздуха измеряются на высoте 2 м в тени вдали oт зданий и деревьев.
Скoрoсть ветра измеряется на высoте 10 м (на урoвне рoста челoвека скoрoсть ветра ниже в 1.5-2 раза). Если метеoстанция нахoдится в гoрoде или в лесу, тo скoрoсть ветра занижена на 2-4 м/с пo сравнению с oткрытым местoм. Скoрoсть ветра над акватoриями крупных рек и oзёр, а также на вершинах хoлмoв на 2-5 м/с выше, чем в oбычных услoвиях.
Атмoсфернoе давление в разных тoчках местнoсти мoжет значительнo oтличаться oт давления на метеoстанции, в зависимoсти oт услoвий рельефа (при пoдъёме на 10 м давление пoнижается примернo на 1 мм рт.ст.).